| time (UTC) | temp F | wind direction | speed MPH | gust MPH | rain 1hr in | rain 24hr in | rain mn in | humidity % | barometer mb |
| 20260504202033 | 68 | 40 | 5.0 | 11.0 | 0.00 | 0.00 | 0.00 | 64 | 1008.2 |
| 20260504201549 | 68 | 52 | 4.0 | 11.0 | 0.00 | 0.00 | 0.00 | 66 | 1008.2 |
| 20260504201035 | 67 | 140 | 5.0 | 12.0 | 0.00 | 0.00 | 0.00 | 67 | 1008.2 |
| 20260504200536 | 66 | 29 | 6.0 | 12.0 | 0.00 | 0.00 | 0.00 | 66 | 1008.1 |
| 20260504200052 | 66 | 35 | 5.0 | 12.0 | 0.00 | 0.00 | 0.00 | 68 | 1008.1 |
| 20260504195535 | 66 | 26 | 6.0 | 12.0 | 0.00 | 0.00 | 0.00 | 69 | 1008.4 |
| 20260504195034 | 66 | 325 | 5.0 | 14.0 | 0.00 | 0.00 | 0.00 | 70 | 1008.3 |
| 20260504194554 | 66 | 24 | 8.0 | 14.0 | 0.00 | 0.00 | 0.00 | 69 | 1008.7 |
| 20260504194034 | 66 | 39 | 9.0 | 14.0 | 0.00 | 0.00 | 0.00 | 67 | 1008.5 |
| 20260504193537 | 67 | 28 | 8.0 | 13.0 | 0.00 | 0.00 | 0.00 | 68 | 1008.9 |
| 20260504193044 | 67 | 43 | 8.0 | 15.0 | 0.00 | 0.00 | 0.00 | 67 | 1009.2 |
| 20260504192533 | 68 | 26 | 9.0 | 15.0 | 0.00 | 0.00 | 0.00 | 65 | 1009.6 |
| 20260504192034 | 68 | 333 | 6.0 | 12.0 | 0.00 | 0.00 | 0.00 | 66 | 1009.4 |
| 20260504191607 | 68 | 51 | 6.0 | 12.0 | 0.00 | 0.00 | 0.00 | 65 | 1009.5 |
| 20260504191036 | 69 | 350 | 4.0 | 16.0 | 0.00 | 0.00 | 0.00 | 63 | 1009.4 |
| 20260504190534 | 69 | 84 | 6.0 | 16.0 | 0.00 | 0.00 | 0.00 | 61 | 1009.4 |
| 20260504185535 | 69 | 32 | 8.0 | 14.0 | 0.00 | 0.00 | 0.00 | 61 | 1009.3 |
| 20260504185035 | 70 | 55 | 4.0 | 14.0 | 0.00 | 0.00 | 0.00 | 61 | 1009.0 |
| 20260504184552 | 70 | 51 | 7.0 | 12.0 | 0.00 | 0.00 | 0.00 | 61 | 1009.1 |
| 20260504184036 | 70 | 61 | 5.0 | 14.0 | 0.00 | 0.00 | 0.00 | 61 | 1009.0 |
| 20260504183536 | 70 | 68 | 5.0 | 14.0 | 0.00 | 0.00 | 0.00 | 61 | 1008.9 |
| 20260504183047 | 70 | 15 | 6.0 | 14.0 | 0.00 | 0.00 | 0.00 | 59 | 1009.1 |
| 20260504182538 | 70 | 55 | 7.0 | 16.0 | 0.00 | 0.00 | 0.00 | 62 | 1009.0 |
| 20260504182036 | 70 | 36 | 7.0 | 16.0 | 0.00 | 0.00 | 0.00 | 60 | 1008.6 |
| 20260504181553 | 70 | 42 | 7.0 | 16.0 | 0.00 | 0.00 | 0.00 | 59 | 1008.8 |
| 20260504181033 | 70 | 90 | 6.0 | 16.0 | 0.00 | 0.00 | 0.00 | 59 | 1008.8 |
| 20260504180534 | 71 | 50 | 9.0 | 16.0 | 0.00 | 0.00 | 0.00 | 57 | 1008.7 |
| 20260504180045 | 71 | 29 | 7.0 | 15.0 | 0.00 | 0.00 | 0.00 | 58 | 1008.5 |
| 20260504175535 | 71 | 310 | 5.0 | 14.0 | 0.00 | 0.00 | 0.00 | 59 | 1008.5 |
| 20260504175036 | 71 | 56 | 7.0 | 14.0 | 0.00 | 0.00 | 0.00 | 59 | 1008.8 |
| 20260504174548 | 71 | 28 | 8.0 | 19.0 | 0.00 | 0.00 | 0.00 | 60 | 1008.8 |
| 20260504174036 | 70 | 33 | 8.0 | 19.0 | 0.00 | 0.00 | 0.00 | 56 | 1008.7 |
| 20260504173535 | 71 | 290 | 8.0 | 16.0 | 0.00 | 0.00 | 0.00 | 58 | 1008.8 |
| 20260504173054 | 71 | 121 | 5.0 | 14.0 | 0.00 | 0.00 | 0.00 | 58 | 1008.7 |
| 20260504172535 | 71 | 42 | 8.0 | 14.0 | 0.00 | 0.00 | 0.00 | 59 | 1008.8 |
| 20260504172036 | 71 | 53 | 6.0 | 15.0 | 0.00 | 0.00 | 0.00 | 59 | 1008.6 |
| 20260504171548 | 70 | 39 | 6.0 | 15.0 | 0.00 | 0.00 | 0.00 | 58 | 1008.7 |
| 20260504171038 | 70 | 313 | 5.0 | 12.0 | 0.00 | 0.00 | 0.00 | 59 | 1008.9 |
| 20260504170536 | 70 | 131 | 6.0 | 12.0 | 0.00 | 0.00 | 0.00 | 60 | 1008.8 |
| 20260504151037 | 62 | 15 | 7.0 | 12.0 | 0.00 | 0.00 | 0.00 | 67 | 1009.8 |
| 20260504150538 | 62 | 51 | 5.0 | 14.0 | 0.00 | 0.00 | 0.00 | 68 | 1009.8 |
| 20260504141036 | 59 | 33 | 6.0 | 11.0 | 0.00 | 0.00 | 0.00 | 72 | 1010.2 |
| 20260504140535 | 58 | 35 | 3.0 | 14.0 | 0.00 | 0.00 | 0.00 | 71 | 1010.1 |
| 20260504130536 | 54 | 35 | 5.0 | 12.0 | 0.00 | 0.00 | 0.00 | 72 | 1010.6 |
| 20260504110535 | 49 | 53 | 4.0 | 8.0 | 0.00 | 0.00 | 0.00 | 75 | 1010.2 |
| 20260504100535 | 49 | 36 | 2.0 | 6.0 | 0.00 | 0.00 | 0.00 | 73 | 1010.7 |
| 20260504081555 | 50 | 338 | 3.0 | 8.0 | 0.00 | 0.00 | 0.00 | 71 | 1011.4 |
| 20260504081036 | 49 | 30 | 3.0 | 8.0 | 0.00 | 0.00 | 0.00 | 71 | 1011.3 |
| 20260504080537 | 49 | 20 | 3.0 | 6.0 | 0.00 | 0.00 | 0.00 | 71 | 1011.5 |
| 20260504050534 | 52 | 57 | 4.0 | 8.0 | 0.00 | 0.00 | 0.00 | 66 | 1012.9 |
| 20260504045532 | 52 | 22 | 3.0 | 9.0 | 0.00 | 0.00 | 0.00 | 65 | 1013.1 |
| 20260504045032 | 52 | 32 | 4.0 | 9.0 | 0.00 | 0.00 | 0.00 | 65 | 1013.1 |
| 20260504044545 | 52 | 325 | 2.0 | 8.0 | 0.00 | 0.00 | 0.00 | 65 | 1013.2 |
| 20260504044033 | 52 | 56 | 3.0 | 8.0 | 0.00 | 0.00 | 0.00 | 66 | 1013.2 |
| 20260504043537 | 52 | 38 | 3.0 | 6.0 | 0.00 | 0.00 | 0.00 | 66 | 1013.2 |
| 20260504043048 | 52 | 51 | 2.0 | 5.0 | 0.00 | 0.00 | 0.00 | 67 | 1013.3 |
| 20260504042536 | 52 | 340 | 2.0 | 5.0 | 0.00 | 0.00 | 0.00 | 67 | 1013.4 |
| 20260504042032 | 52 | 34 | 2.0 | 4.0 | 0.00 | 0.00 | 0.00 | 67 | 1013.3 |
| 20260504041546 | 52 | 330 | 1.0 | 3.0 | 0.00 | 0.00 | 0.00 | 68 | 1013.4 |
| 20260504041032 | 51 | 32 | 1.0 | 2.0 | 0.00 | 0.00 | 0.00 | 68 | 1013.4 |
| 20260504040532 | 51 | 9 | 0.0 | 2.0 | 0.00 | 0.00 | 0.00 | 69 | 1013.5 |
| 20260504040126 | 51 | 14 | 0.0 | 3.0 | 0.00 | 0.00 | 0.00 | 69 | 1013.6 |
| 20260504035532 | 51 | 24 | 0.0 | 3.0 | 0.00 | 0.00 | 0.00 | 69 | 1013.6 |
| 20260504035033 | 51 | 31 | 1.0 | 2.0 | 0.00 | 0.00 | 0.00 | 68 | 1013.7 |
| 20260504034544 | 51 | 22 | 0.0 | 2.0 | 0.00 | 0.00 | 0.00 | 69 | 1013.7 |
| 20260504034035 | 51 | 13 | 0.0 | 2.0 | 0.00 | 0.00 | 0.00 | 69 | 1013.7 |
| 20260504033533 | 51 | 0 | 0.0 | 2.0 | 0.00 | 0.00 | 0.00 | 69 | 1013.8 |
| 20260504033048 | 51 | 0 | 0.0 | 2.0 | 0.00 | 0.00 | 0.00 | 69 | 1013.9 |
| 20260504032533 | 51 | 14 | 0.0 | 1.0 | 0.00 | 0.00 | 0.00 | 70 | 1013.8 |
| 20260504032032 | 51 | 0 | 0.0 | 1.0 | 0.00 | 0.00 | 0.00 | 70 | 1013.9 |
| 20260504031554 | 51 | 350 | 0.0 | 1.0 | 0.00 | 0.00 | 0.00 | 70 | 1013.8 |
| 20260504031035 | 51 | 19 | 0.0 | 1.0 | 0.00 | 0.00 | 0.00 | 71 | 1014.0 |
| 20260504030532 | 51 | 22 | 0.0 | 1.0 | 0.00 | 0.00 | 0.00 | 71 | 1014.0 |
| 20260504030045 | 50 | 311 | 0.0 | 2.0 | 0.00 | 0.00 | 0.00 | 71 | 1014.1 |
| 20260504025534 | 50 | 0 | 0.0 | 2.0 | 0.00 | 0.00 | 0.00 | 72 | 1014.2 |
| 20260504025032 | 50 | 35 | 0.0 | 2.0 | 0.00 | 0.00 | 0.00 | 72 | 1014.2 |
| 20260504024544 | 50 | 35 | 0.0 | 2.0 | 0.00 | 0.00 | 0.00 | 73 | 1014.3 |
| 20260504024036 | 50 | 36 | 0.0 | 1.0 | 0.00 | 0.00 | 0.00 | 72 | 1014.3 |
| 20260504023537 | 50 | 0 | 0.0 | 3.0 | 0.00 | 0.00 | 0.00 | 72 | 1014.3 |
| 20260504023049 | 50 | 0 | 0.0 | 3.0 | 0.00 | 0.00 | 0.00 | 73 | 1014.4 |
| 20260504022537 | 50 | 22 | 0.0 | 1.0 | 0.00 | 0.00 | 0.00 | 73 | 1014.3 |
| 20260504022037 | 50 | 0 | 0.0 | 2.0 | 0.00 | 0.00 | 0.00 | 73 | 1014.4 |
| 20260504021548 | 50 | 0 | 0.0 | 2.0 | 0.00 | 0.00 | 0.00 | 74 | 1014.3 |
| 20260504021037 | 50 | 0 | 0.0 | 1.0 | 0.00 | 0.00 | 0.00 | 74 | 1014.4 |
| 20260504020536 | 50 | 0 | 0.0 | 1.0 | 0.00 | 0.00 | 0.00 | 74 | 1014.3 |
| 20260504020100 | 50 | 0 | 0.0 | 2.0 | 0.00 | 0.00 | 0.00 | 75 | 1014.3 |
| 20260504015541 | 50 | 0 | 0.0 | 2.0 | 0.00 | 0.00 | 0.00 | 75 | 1014.2 |
| 20260504015037 | 49 | 39 | 0.0 | 2.0 | 0.00 | 0.00 | 0.00 | 76 | 1014.2 |
| 20260504014552 | 50 | 50 | 0.0 | 2.0 | 0.00 | 0.00 | 0.00 | 77 | 1014.4 |
| 20260504014038 | 50 | 343 | 0.0 | 2.0 | 0.00 | 0.00 | 0.00 | 76 | 1014.3 |
| 20260504013538 | 50 | 340 | 1.0 | 2.0 | 0.00 | 0.00 | 0.00 | 76 | 1014.4 |
| 20260504013046 | 50 | 0 | 0.0 | 2.0 | 0.00 | 0.00 | 0.00 | 76 | 1014.4 |
| 20260504012537 | 50 | 327 | 0.0 | 2.0 | 0.00 | 0.00 | 0.00 | 76 | 1014.2 |
| 20260504012040 | 50 | 48 | 0.0 | 1.0 | 0.00 | 0.00 | 0.00 | 75 | 1014.4 |
| 20260504011547 | 50 | 0 | 0.0 | 1.0 | 0.00 | 0.00 | 0.00 | 75 | 1014.4 |
| 20260504011037 | 50 | 0 | 0.0 | 1.0 | 0.00 | 0.00 | 0.00 | 75 | 1014.4 |
| 20260504010536 | 50 | 0 | 0.0 | 1.0 | 0.00 | 0.00 | 0.00 | 75 | 1014.5 |
| 20260504010054 | 50 | 0 | 0.0 | 1.0 | 0.00 | 0.00 | 0.00 | 75 | 1014.5 |
| 20260504005537 | 50 | 0 | 0.0 | 1.0 | 0.00 | 0.00 | 0.00 | 74 | 1014.4 |
| 20260504005042 | 50 | 0 | 0.0 | 1.0 | 0.00 | 0.00 | 0.00 | 74 | 1014.4 |
| 20260504004545 | 50 | 0 | 0.0 | 1.0 | 0.00 | 0.00 | 0.00 | 73 | 1014.3 |
| 20260504004038 | 50 | 0 | 0.0 | 1.0 | 0.00 | 0.00 | 0.00 | 73 | 1014.3 |
| 20260504003539 | 50 | 0 | 0.0 | 1.0 | 0.00 | 0.00 | 0.00 | 73 | 1014.3 |
| 20260504003046 | 50 | 0 | 0.0 | 1.0 | 0.00 | 0.00 | 0.00 | 72 | 1014.4 |
| 20260504002535 | 50 | 325 | 0.0 | 1.0 | 0.00 | 0.00 | 0.00 | 72 | 1014.4 |
| 20260504002035 | 50 | 0 | 0.0 | 1.0 | 0.00 | 0.00 | 0.00 | 72 | 1014.4 |
| 20260504001552 | 50 | 325 | 0.0 | 1.0 | 0.00 | 0.00 | 0.00 | 71 | 1014.3 |
| 20260504001035 | 50 | 0 | 0.0 | 1.0 | 0.00 | 0.00 | 0.00 | 71 | 1014.3 |
| 20260504000537 | 50 | 0 | 0.0 | 2.0 | 0.00 | 0.00 | 0.00 | 72 | 1014.2 |
| 20260504000050 | 50 | 331 | 0.0 | 2.0 | 0.00 | 0.00 | 0.00 | 72 | 1014.2 |
| 20260503235536 | 50 | 0 | 0.0 | 1.0 | 0.00 | 0.00 | 0.00 | 72 | 1014.3 |
| 20260503235037 | 50 | 0 | 0.0 | 1.0 | 0.00 | 0.00 | 0.00 | 73 | 1014.2 |
| 20260503234610 | 50 | 0 | 0.0 | 1.0 | 0.00 | 0.00 | 0.00 | 73 | 1014.1 |
| 20260503234035 | 50 | 293 | 0.0 | 1.0 | 0.00 | 0.00 | 0.00 | 73 | 1014.2 |
| 20260503233535 | 50 | 306 | 0.0 | 1.0 | 0.00 | 0.00 | 0.00 | 73 | 1014.4 |
| 20260503233051 | 50 | 0 | 0.0 | 1.0 | 0.00 | 0.00 | 0.00 | 74 | 1014.4 |
| 20260503232535 | 50 | 0 | 0.0 | 1.0 | 0.00 | 0.00 | 0.00 | 74 | 1014.4 |
| 20260503232036 | 50 | 0 | 0.0 | 1.0 | 0.00 | 0.00 | 0.00 | 74 | 1014.6 |
| 20260503231549 | 50 | 0 | 0.0 | 1.0 | 0.00 | 0.00 | 0.00 | 75 | 1014.6 |
| 20260503231036 | 50 | 30 | 0.0 | 1.0 | 0.00 | 0.00 | 0.00 | 75 | 1014.8 |
| 20260503230539 | 50 | 285 | 0.0 | 1.0 | 0.00 | 0.00 | 0.00 | 75 | 1014.8 |
| 20260503230048 | 50 | 0 | 0.0 | 1.0 | 0.00 | 0.00 | 0.00 | 76 | 1015.1 |
| 20260503225536 | 50 | 0 | 0.0 | 0.0 | 0.00 | 0.00 | 0.00 | 77 | 1015.2 |
| 20260503225036 | 50 | 0 | 0.0 | 1.0 | 0.00 | 0.00 | 0.00 | 76 | 1015.1 |
| 20260503224547 | 49 | 0 | 0.0 | 1.0 | 0.00 | 0.00 | 0.00 | 76 | 1015.3 |
| 20260503224037 | 49 | 0 | 0.0 | 1.0 | 0.00 | 0.00 | 0.00 | 76 | 1015.5 |
| 20260503223537 | 49 | 0 | 0.0 | 1.0 | 0.00 | 0.00 | 0.00 | 76 | 1015.6 |
| 20260503223049 | 49 | 0 | 0.0 | 0.0 | 0.00 | 0.00 | 0.00 | 76 | 1015.9 |
| 20260503222538 | 49 | 0 | 0.0 | 0.0 | 0.00 | 0.00 | 0.00 | 76 | 1016.0 |
| 20260503222036 | 49 | 0 | 0.0 | 1.0 | 0.00 | 0.00 | 0.00 | 76 | 1015.9 |
| 20260503221554 | 49 | 0 | 0.0 | 1.0 | 0.00 | 0.00 | 0.00 | 76 | 1016.0 |
| 20260503221036 | 50 | 315 | 0.0 | 1.0 | 0.00 | 0.00 | 0.00 | 76 | 1016.3 |
| 20260503220537 | 50 | 331 | 0.0 | 1.0 | 0.00 | 0.00 | 0.00 | 74 | 1016.4 |
| 20260503220048 | 50 | 331 | 0.0 | 1.0 | 0.00 | 0.00 | 0.00 | 71 | 1016.4 |
| 20260503215535 | 51 | 0 | 0.0 | 8.0 | 0.00 | 0.00 | 0.00 | 70 | 1016.3 |
| 20260503215036 | 51 | 113 | 3.0 | 12.0 | 0.00 | 0.00 | 0.00 | 68 | 1016.6 |
| 20260503214547 | 51 | 324 | 4.0 | 12.0 | 0.00 | 0.00 | 0.00 | 65 | 1016.8 |
| 20260503214036 | 52 | 57 | 4.0 | 14.0 | 0.00 | 0.00 | 0.00 | 63 | 1016.8 |
| 20260503213539 | 52 | 36 | 4.0 | 14.0 | 0.00 | 0.00 | 0.00 | 62 | 1016.7 |
| 20260503213046 | 53 | 71 | 6.0 | 20.0 | 0.00 | 0.00 | 0.00 | 60 | 1016.7 |
| 20260503212537 | 54 | 53 | 6.0 | 20.0 | 0.00 | 0.00 | 0.00 | 58 | 1016.7 |
| 20260503212038 | 55 | 50 | 4.0 | 12.0 | 0.00 | 0.00 | 0.00 | 53 | 1016.5 |
| 20260503211551 | 56 | 63 | 5.0 | 13.0 | 0.00 | 0.00 | 0.00 | 49 | 1016.5 |
| 20260503211036 | 56 | 96 | 6.0 | 13.0 | 0.00 | 0.00 | 0.00 | 47 | 1016.3 |
| 20260503210536 | 57 | 22 | 6.0 | 23.0 | 0.00 | 0.00 | 0.00 | 46 | 1016.3 |
| 20260503210050 | 57 | 76 | 6.0 | 23.0 | 0.00 | 0.00 | 0.00 | 45 | 1016.2 |
| 20260503205537 | 57 | 77 | 8.0 | 23.0 | 0.00 | 0.00 | 0.00 | 43 | 1016.3 |
| 20260503205037 | 58 | 66 | 3.0 | 11.0 | 0.00 | 0.00 | 0.00 | 44 | 1016.0 |
| 20260503204550 | 58 | 11 | 2.0 | 12.0 | 0.00 | 0.00 | 0.00 | 42 | 1016.1 |
| 20260503204037 | 58 | 92 | 4.0 | 12.0 | 0.00 | 0.00 | 0.00 | 44 | 1016.2 |
| 20260503203555 | 58 | 325 | 6.0 | 16.0 | 0.00 | 0.00 | 0.00 | 45 | 1016.1 |
| 20260503203055 | 59 | 49 | 7.0 | 16.0 | 0.00 | 0.00 | 0.00 | 42 | 1016.2 |
| 20260503202540 | 59 | 33 | 4.0 | 15.0 | 0.00 | 0.00 | 0.00 | 43 | 1016.3 |